DW4657 Weather Reports


Display with metric or nautical units.
time (UTC)temp
F
wind
direction
speed
MPH
gust
MPH
rain 1hr
in
rain 24hr
in
rain mn
in
humidity
%
barometer
mb
20260904144024 76 343 2.0 5.0 0.00 0.00 0.00 75 1009.4
20260904143525 76 32 1.0 6.0 0.00 0.00 0.00 76 1009.5
20260904143044 76 28 3.0 6.0 0.00 0.00 0.00 76 1009.4
20260904142526 76 359 0.0 3.0 0.00 0.00 0.00 78 1009.4
20260904142023 75 0 0.0 3.0 0.00 0.00 0.00 78 1009.5
20260904141542 75 34 0.0 5.0 0.00 0.00 0.00 78 1009.5
20260904141024 75 307 0.0 5.0 0.00 0.00 0.00 81 1009.4
20260904140524 74 0 0.0 3.0 0.00 0.00 0.00 84 1009.4
20260904140046 73 31 1.0 4.0 0.00 0.00 0.00 86 1009.4
20260904135524 73 0 0.0 4.0 0.00 0.00 0.00 88 1009.4
20260904135024 73 39 0.0 2.0 0.00 0.00 0.00 92 1009.5
20260904134549 72 0 0.0 2.0 0.00 0.00 0.00 94 1009.6
20260904134024 72 0 0.0 3.0 0.00 0.00 0.00 95 1009.7
20260904133518 71 105 1.0 4.0 0.00 0.00 0.00 96 1009.7
20260904133047 71 111 1.0 4.0 0.00 0.00 0.00 97 1009.7
20260904132525 70 118 1.0 3.0 0.00 0.00 0.00 97 1009.6
20260904132023 69 26 1.0 3.0 0.00 0.00 0.00 97 1009.6
20260904131550 69 0 0.0 1.0 0.00 0.00 0.00 97 1009.5
20260904131025 69 0 0.0 1.0 0.00 0.00 0.00 98 1009.6
20260904130528 68 0 0.0 1.0 0.00 0.00 0.00 98 1009.6
20260904130046 68 0 0.0 0.0 0.00 0.00 0.00 98 1009.6
20260904125524 67 0 0.0 0.0 0.00 0.01 0.00 97 1009.5
20260904125025 67 0 0.0 0.0 0.00 0.01 0.00 98 1009.6
20260904124542 67 0 0.0 0.0 0.00 0.01 0.00 98 1009.6
20260904124019 67 0 0.0 0.0 0.00 0.01 0.00 98 1009.5
20260904123519 66 0 0.0 0.0 0.00 0.01 0.00 98 1009.7
20260904123046 66 0 0.0 0.0 0.00 0.01 0.00 98 1009.8
20260904122525 66 0 0.0 0.0 0.00 0.01 0.00 98 1009.7
20260904122025 66 0 0.0 0.0 0.00 0.01 0.00 98 1009.6
20260904121545 66 0 0.0 0.0 0.00 0.01 0.00 98 1009.6
20260904121023 65 0 0.0 1.0 0.00 0.01 0.00 97 1009.7
20260904120523 65 0 0.0 1.0 0.00 0.01 0.00 97 1009.7
20260904120044 65 0 0.0 0.0 0.00 0.01 0.00 98 1009.7
20260904115523 65 0 0.0 0.0 0.00 0.03 0.00 98 1009.7
20260904115024 65 0 0.0 0.0 0.00 0.03 0.00 98 1009.7
20260904114543 65 0 0.0 0.0 0.00 0.03 0.00 98 1009.7
20260904114024 65 0 0.0 0.0 0.00 0.03 0.00 98 1009.7
20260904113524 65 0 0.0 0.0 0.00 0.03 0.00 98 1009.7
20260904113045 64 0 0.0 0.0 0.00 0.03 0.00 98 1009.7
20260904112524 64 0 0.0 0.0 0.00 0.03 0.00 98 1009.8
20260904112024 64 0 0.0 0.0 0.00 0.03 0.00 97 1009.7
20260904111542 64 0 0.0 0.0 0.00 0.03 0.00 97 1009.7
20260904111023 64 0 0.0 0.0 0.00 0.03 0.00 97 1009.7
20260904110524 64 0 0.0 0.0 0.00 0.03 0.00 97 1009.6
20260904110044 64 0 0.0 0.0 0.00 0.03 0.00 97 1009.7
20260904105522 64 0 0.0 0.0 0.00 0.06 0.00 97 1009.8
20260904105021 64 0 0.0 0.0 0.00 0.06 0.00 97 1009.6
20260904104544 64 0 0.0 0.0 0.00 0.06 0.00 97 1009.6
20260904104021 64 0 0.0 0.0 0.00 0.06 0.00 97 1009.5
20260904103525 64 0 0.0 0.0 0.00 0.06 0.00 97 1009.4
20260904103052 64 0 0.0 0.0 0.00 0.06 0.00 97 1009.4
20260904102524 64 0 0.0 0.0 0.00 0.06 0.00 97 1009.4
20260904102024 64 0 0.0 0.0 0.00 0.06 0.00 97 1009.4
20260904101551 64 0 0.0 0.0 0.00 0.06 0.00 97 1009.4
20260904101031 64 0 0.0 0.0 0.00 0.06 0.00 97 1009.4
20260904100523 64 0 0.0 0.0 0.00 0.06 0.00 97 1009.3
20260904100042 64 0 0.0 0.0 0.00 0.06 0.00 97 1009.3
20260904095524 64 0 0.0 0.0 0.00 0.13 0.00 97 1009.3
20260904095018 64 0 0.0 0.0 0.00 0.13 0.00 97 1009.2
20260904094558 64 0 0.0 0.0 0.00 0.13 0.00 97 1009.2
20260904094021 64 0 0.0 0.0 0.00 0.13 0.00 97 1009.3
20260904093524 64 0 0.0 0.0 0.00 0.13 0.00 97 1009.3
20260904093044 64 0 0.0 0.0 0.00 0.13 0.00 97 1009.2
20260904092528 64 0 0.0 0.0 0.00 0.13 0.00 97 1009.3
20260904092025 64 0 0.0 0.0 0.00 0.13 0.00 97 1009.3
20260904091547 64 0 0.0 0.0 0.00 0.13 0.00 97 1009.2
20260904091019 64 0 0.0 0.0 0.00 0.13 0.00 97 1009.2
20260904090521 64 0 0.0 0.0 0.00 0.13 0.00 97 1009.2
20260904090042 65 0 0.0 0.0 0.00 0.13 0.00 97 1009.2
20260904085525 65 0 0.0 0.0 0.00 0.16 0.00 97 1009.1
20260904085024 65 0 0.0 0.0 0.00 0.16 0.00 97 1009.2
20260904084542 65 0 0.0 0.0 0.00 0.16 0.00 97 1009.3
20260904084025 65 0 0.0 0.0 0.00 0.16 0.00 97 1009.3
20260904083526 65 0 0.0 0.0 0.00 0.16 0.00 97 1009.3
20260904083048 65 0 0.0 0.0 0.00 0.16 0.00 97 1009.3
20260904082524 65 0 0.0 0.0 0.00 0.16 0.00 97 1009.5
20260904082024 65 0 0.0 0.0 0.00 0.16 0.00 97 1009.4
20260904081543 65 0 0.0 0.0 0.00 0.16 0.00 97 1009.5
20260904081025 65 0 0.0 0.0 0.00 0.16 0.00 97 1009.4
20260904080518 65 0 0.0 0.0 0.00 0.16 0.00 97 1009.4
20260904080044 65 0 0.0 0.0 0.00 0.16 0.00 97 1009.3
20260904075523 65 0 0.0 0.0 0.00 0.16 0.00 97 1009.3
20260904075024 65 0 0.0 0.0 0.00 0.16 0.00 97 1009.4
20260904074549 65 0 0.0 0.0 0.00 0.16 0.00 97 1009.4
20260904074025 65 0 0.0 0.0 0.00 0.16 0.00 97 1009.6
20260904073524 65 0 0.0 0.0 0.00 0.16 0.00 97 1009.8
20260904073049 65 0 0.0 0.0 0.00 0.16 0.00 97 1009.9
20260904072523 65 0 0.0 0.0 0.00 0.16 0.00 97 1009.9
20260904072019 65 0 0.0 0.0 0.00 0.16 0.00 97 1010.0
20260904071543 65 0 0.0 1.0 0.00 0.16 0.00 96 1009.9
20260904071025 65 0 0.0 1.0 0.00 0.16 0.00 96 1010.0
20260904070525 65 0 0.0 0.0 0.00 0.16 0.00 97 1010.0
20260904070041 65 0 0.0 0.0 0.00 0.16 0.00 96 1010.1
20260904065528 65 0 0.0 0.0 0.00 0.16 0.00 96 1010.1
20260904065025 65 0 0.0 0.0 0.00 0.16 0.00 96 1010.1
20260904064542 65 0 0.0 0.0 0.00 0.16 0.00 96 1010.0
20260904064024 65 0 0.0 0.0 0.00 0.16 0.00 96 1010.1
20260904063523 65 0 0.0 0.0 0.00 0.16 0.00 96 1010.1
20260904063045 65 0 0.0 0.0 0.00 0.16 0.00 96 1010.2
20260904062525 65 0 0.0 0.0 0.00 0.16 0.00 96 1010.2
20260904062018 65 0 0.0 1.0 0.00 0.16 0.00 96 1010.1
20260904061540 65 0 0.0 1.0 0.00 0.16 0.00 96 1010.2
20260904061020 64 0 0.0 1.0 0.00 0.16 0.00 96 1010.2
20260904060521 64 0 0.0 1.0 0.00 0.16 0.00 96 1010.3
20260904060059 64 0 0.0 2.0 0.00 0.16 0.00 96 1010.2
20260904055523 64 35 0.0 2.0 0.00 0.16 0.00 96 1010.4
20260904055024 64 0 0.0 0.0 0.00 0.16 0.00 96 1010.4
20260904054556 64 0 0.0 0.0 0.00 0.16 0.00 96 1010.3
20260904054023 64 0 0.0 0.0 0.00 0.16 0.00 96 1010.2
20260904053524 64 0 0.0 0.0 0.00 0.16 0.00 96 1010.3
20260904053046 64 0 0.0 0.0 0.00 0.16 0.00 96 1010.4
20260904052519 64 0 0.0 0.0 0.00 0.16 0.00 95 1010.4
20260904052022 64 0 0.0 0.0 0.00 0.16 0.00 95 1010.4
20260904051542 64 0 0.0 0.0 0.00 0.16 0.00 95 1010.5
20260904051020 64 0 0.0 0.0 0.00 0.16 0.00 95 1010.5
20260904050524 64 0 0.0 0.0 0.00 0.16 0.00 95 1010.6
20260904050046 64 0 0.0 0.0 0.00 0.16 0.00 95 1010.7
20260904045531 65 0 0.0 0.0 0.00 0.16 0.00 95 1010.8
20260904045024 65 0 0.0 0.0 0.00 0.16 0.00 95 1010.9
20260904044549 65 0 0.0 0.0 0.00 0.16 0.00 95 1010.9
20260904044023 65 0 0.0 0.0 0.00 0.16 0.00 95 1011.0
20260904043523 65 0 0.0 0.0 0.00 0.16 0.00 95 1011.0
20260904043045 65 0 0.0 0.0 0.00 0.16 0.00 95 1011.0
20260904042525 65 0 0.0 0.0 0.00 0.16 0.00 95 1011.1
20260904042023 65 0 0.0 0.0 0.00 0.16 0.00 95 1011.1
20260904041544 65 0 0.0 0.0 0.00 0.16 0.00 95 1011.1
20260904041023 65 0 0.0 0.0 0.00 0.16 0.00 95 1011.1
20260904040525 65 0 0.0 0.0 0.00 0.16 0.00 95 1011.1
20260904040045 66 0 0.0 0.0 0.00 0.16 0.00 95 1011.2
20260904035523 66 0 0.0 0.0 0.00 0.16 0.16 95 1011.2
20260904035019 66 0 0.0 0.0 0.00 0.16 0.16 95 1011.2
20260904034543 66 0 0.0 0.0 0.00 0.16 0.16 95 1011.2
20260904034021 66 0 0.0 0.0 0.00 0.16 0.16 95 1011.2
20260904033527 66 0 0.0 0.0 0.00 0.16 0.16 95 1011.3
20260904033046 66 0 0.0 0.0 0.00 0.16 0.16 95 1011.3
20260904032524 66 0 0.0 0.0 0.00 0.16 0.16 95 1011.3
20260904032024 67 0 0.0 0.0 0.00 0.16 0.16 95 1011.4
20260904031544 67 0 0.0 0.0 0.00 0.16 0.16 95 1011.4
20260904031023 67 0 0.0 0.0 0.00 0.16 0.16 95 1011.3
20260904030523 67 0 0.0 0.0 0.00 0.16 0.16 95 1011.4
20260904030043 67 0 0.0 0.0 0.00 0.16 0.16 95 1011.3
20260904025524 67 0 0.0 0.0 0.00 0.16 0.16 95 1011.3
20260904025024 67 0 0.0 0.0 0.00 0.16 0.16 95 1011.4
20260904024543 67 0 0.0 0.0 0.00 0.16 0.16 95 1011.4
20260904024023 67 0 0.0 0.0 0.00 0.16 0.16 94 1011.6
20260904023524 67 0 0.0 0.0 0.00 0.16 0.16 94 1011.5
20260904023046 67 0 0.0 0.0 0.00 0.16 0.16 94 1011.6
20260904022523 67 0 0.0 0.0 0.00 0.16 0.16 94 1011.8
20260904022026 68 0 0.0 0.0 0.00 0.16 0.16 94 1011.8
20260904021543 68 0 0.0 0.0 0.00 0.16 0.16 94 1011.8
20260904021024 68 0 0.0 0.0 0.00 0.16 0.16 94 1011.7
20260904020524 68 0 0.0 0.0 0.00 0.16 0.16 94 1011.9
20260904020043 68 0 0.0 0.0 0.00 0.16 0.16 94 1011.9
20260904015518 68 0 0.0 0.0 0.00 0.16 0.16 94 1011.7
20260904015026 68 0 0.0 0.0 0.00 0.16 0.16 94 1011.7
20260904014612 68 0 0.0 0.0 0.00 0.16 0.16 94 1011.9
20260904014024 68 0 0.0 0.0 0.00 0.16 0.16 94 1012.1
20260904013524 68 0 0.0 0.0 0.00 0.16 0.16 94 1012.1
20260904013046 68 0 0.0 0.0 0.00 0.16 0.16 94 1012.2
20260904012523 68 0 0.0 0.0 0.00 0.16 0.16 94 1012.3
20260904012025 68 0 0.0 0.0 0.00 0.16 0.16 94 1012.4
20260904011544 68 0 0.0 0.0 0.00 0.16 0.16 94 1012.4
20260904011023 68 0 0.0 0.0 0.00 0.16 0.16 93 1012.3
20260904010521 69 0 0.0 0.0 0.00 0.16 0.16 93 1012.2
20260904010049 69 0 0.0 0.0 0.00 0.16 0.16 93 1012.2
20260904005524 69 0 0.0 0.0 0.00 0.16 0.16 93 1012.2
20260904005023 69 0 0.0 0.0 0.00 0.16 0.16 93 1012.0
20260904004544 69 0 0.0 0.0 0.00 0.16 0.16 93 1011.9
20260904004024 69 0 0.0 0.0 0.00 0.16 0.16 93 1011.8
20260904003521 69 0 0.0 0.0 0.00 0.16 0.16 93 1011.7
20260904003044 69 0 0.0 0.0 0.00 0.16 0.16 92 1011.6
20260904002524 69 0 0.0 0.0 0.00 0.16 0.16 92 1011.6
20260904002024 70 0 0.0 0.0 0.00 0.16 0.16 92 1011.6
20260904001545 70 0 0.0 0.0 0.00 0.16 0.16 92 1011.5
20260904001026 70 0 0.0 0.0 0.00 0.16 0.16 92 1011.4
20260904000525 70 0 0.0 0.0 0.00 0.16 0.16 92 1011.3
20260904000043 70 0 0.0 0.0 0.00 0.16 0.16 92 1011.2
20260903235524 70 0 0.0 0.0 0.00 0.16 0.16 92 1011.2
20260903235021 70 0 0.0 0.0 0.00 0.16 0.16 91 1011.2
20260903234544 71 0 0.0 0.0 0.00 0.16 0.16 91 1011.3
20260903234024 71 0 0.0 0.0 0.00 0.16 0.16 91 1011.3
20260903233525 71 0 0.0 0.0 0.00 0.16 0.16 91 1011.3
20260903233048 71 0 0.0 0.0 0.00 0.16 0.16 90 1011.3
20260903232524 71 0 0.0 0.0 0.00 0.16 0.16 90 1011.5
20260903232023 72 0 0.0 0.0 0.00 0.16 0.16 90 1011.3
20260903231544 72 0 0.0 0.0 0.00 0.16 0.16 89 1011.3
20260903231024 72 0 0.0 0.0 0.00 0.16 0.16 89 1011.0
20260903230524 73 0 0.0 0.0 0.00 0.16 0.16 89 1011.1
20260903230041 73 0 0.0 0.0 0.00 0.16 0.16 88 1011.2
20260903225527 73 0 0.0 0.0 0.00 0.16 0.16 88 1011.2
20260903225024 73 0 0.0 0.0 0.00 0.16 0.16 87 1011.3
20260903224540 74 0 0.0 0.0 0.00 0.16 0.16 87 1011.3
20260903224025 74 0 0.0 0.0 0.00 0.16 0.16 87 1011.3
20260903223524 74 0 0.0 0.0 0.00 0.16 0.16 88 1011.5
20260903223055 74 0 0.0 0.0 0.00 0.16 0.16 87 1011.5
20260903222521 74 0 0.0 0.0 0.00 0.16 0.16 87 1011.7
20260903222018 74 0 0.0 0.0 0.00 0.16 0.16 87 1011.7
20260903221542 74 0 0.0 0.0 0.00 0.16 0.16 86 1011.7
20260903221024 74 0 0.0 0.0 0.00 0.16 0.16 86 1011.7
20260903220523 74 0 0.0 0.0 0.00 0.16 0.16 86 1011.8
20260903220046 75 0 0.0 0.0 0.00 0.16 0.16 86 1011.7
20260903215524 75 0 0.0 2.0 0.00 0.16 0.16 85 1011.6
20260903215023 75 0 0.0 2.0 0.00 0.16 0.16 85 1011.5
20260903214546 75 126 0.0 4.0 0.00 0.16 0.16 85 1011.5
20260903214024 75 128 0.0 4.0 0.00 0.16 0.16 84 1011.5
20260903213522 75 0 0.0 4.0 0.00 0.16 0.16 84 1011.3
20260903213044 75 0 0.0 5.0 0.00 0.16 0.16 84 1011.5
20260903212524 75 101 2.0 5.0 0.00 0.16 0.16 84 1011.5
20260903212024 75 0 0.0 3.0 0.00 0.16 0.16 86 1011.5
20260903211600 75 0 1.0 3.0 0.00 0.16 0.16 86 1011.5
20260903211025 75 98 0.0 3.0 0.00 0.16 0.16 86 1011.5
20260903210524 75 116 1.0 3.0 0.00 0.16 0.16 86 1011.5
20260903210045 75 107 0.0 3.0 0.00 0.16 0.16 85 1011.5
20260903205523 75 139 0.0 2.0 0.00 0.16 0.16 85 1011.5
20260903205018 75 0 0.0 2.0 0.00 0.16 0.16 85 1011.5
20260903204542 75 0 0.0 4.0 0.00 0.16 0.16 85 1011.6
20260903204027 75 91 1.0 4.0 0.00 0.16 0.16 85 1011.5
20260903203525 76 70 0.0 2.0 0.00 0.16 0.16 84 1011.5
20260903203042 76 100 0.0 2.0 0.00 0.16 0.16 84 1011.6
20260903202524 76 85 0.0 3.0 0.00 0.16 0.16 84 1011.7
20260903202024 76 0 0.0 3.0 0.00 0.16 0.16 83 1011.8
20260903201548 77 161 0.0 3.0 0.00 0.16 0.16 83 1011.7
20260903201024 77 0 0.0 3.0 0.00 0.16 0.16 83 1011.7
20260903200523 76 0 1.0 4.0 0.00 0.16 0.16 84 1011.6
20260903200043 76 69 1.0 4.0 0.00 0.16 0.16 84 1011.7
20260903195518 76 0 1.0 3.0 0.00 0.16 0.16 84 1011.7
20260903195025 76 7 0.0 4.0 0.00 0.16 0.16 84 1011.7
20260903194542 76 15 1.0 4.0 0.00 0.16 0.16 84 1011.7
20260903194024 76 28 0.0 4.0 0.00 0.16 0.16 84 1011.8
20260903193523 76 18 2.0 4.0 0.00 0.16 0.16 84 1011.8
20260903193045 76 29 2.0 4.0 0.00 0.16 0.16 84 1011.9
20260903192524 76 30 1.0 4.0 0.00 0.16 0.16 85 1012.0
20260903192024 76 37 1.0 4.0 0.00 0.16 0.16 84 1012.0
20260903191545 76 28 2.0 4.0 0.00 0.16 0.16 84 1012.0
20260903191024 76 29 2.0 4.0 0.00 0.16 0.16 84 1012.1
20260903190524 76 28 2.0 4.0 0.00 0.16 0.16 84 1012.2
20260903190044 76 18 1.0 3.0 0.00 0.16 0.16 84 1012.2
20260903185518 76 34 1.0 4.0 0.00 0.16 0.16 84 1012.1
20260903185024 76 28 1.0 4.0 0.00 0.16 0.16 84 1012.2
20260903184552 77 37 1.0 4.0 0.00 0.16 0.16 84 1012.2
20260903184023 77 27 1.0 4.0 0.00 0.16 0.16 84 1012.2
20260903183523 76 31 1.0 4.0 0.00 0.16 0.16 84 1012.2
20260903183047 77 0 0.0 1.0 0.00 0.16 0.16 84 1012.4
20260903182525 77 0 0.0 1.0 0.00 0.16 0.16 83 1012.4
20260903182024 77 0 0.0 1.0 0.00 0.16 0.16 83 1012.5
20260903181545 77 0 0.0 1.0 0.00 0.16 0.16 82 1012.5
20260903181025 78 27 0.0 1.0 0.00 0.16 0.16 81 1012.4
20260903180519 79 0 0.0 1.0 0.00 0.16 0.16 81 1012.3
20260903180046 79 0 0.0 3.0 0.00 0.16 0.16 81 1012.4
20260903175526 79 0 1.0 3.0 0.00 0.16 0.16 79 1012.3
20260903175018 79 0 0.0 3.0 0.00 0.16 0.16 81 1012.4
20260903174539 80 0 0.0 2.0 0.00 0.16 0.16 80 1012.3
20260903174025 79 109 0.0 2.0 0.00 0.16 0.16 80 1012.4
20260903173529 79 162 0.0 2.0 0.00 0.16 0.16 80 1012.4
20260903173046 79 0 0.0 1.0 0.00 0.16 0.16 81 1012.6
20260903172525 79 0 0.0 1.0 0.00 0.16 0.16 82 1012.6
20260903172025 78 0 0.0 1.0 0.00 0.16 0.16 83 1012.8
20260903171554 78 132 0.0 0.0 0.00 0.16 0.16 81 1012.9
20260903171026 78 0 0.0 1.0 0.00 0.16 0.16 83 1012.8
20260903170526 78 0 0.0 1.0 0.00 0.16 0.16 83 1012.7
20260903170042 78 70 0.0 1.0 0.00 0.16 0.16 85 1012.6
20260903165522 77 127 0.0 2.0 0.00 0.16 0.16 85 1012.6
20260903165028 76 162 1.0 2.0 0.00 0.16 0.16 85 1012.6
20260903164550 76 0 0.0 2.0 0.00 0.16 0.16 86 1012.5
20260903164025 76 0 0.0 2.0 0.00 0.16 0.16 86 1012.5
20260903163526 76 0 0.0 3.0 0.00 0.16 0.16 86 1012.6
20260903163044 75 206 0.0 3.0 0.00 0.16 0.16 86 1012.6
20260903162523 75 203 0.0 2.0 0.00 0.16 0.16 87 1012.5
20260903162021 75 0 0.0 3.0 0.00 0.16 0.16 89 1012.5
20260903161541 74 140 1.0 3.0 0.00 0.16 0.16 89 1012.7
20260903161022 74 0 0.0 1.0 0.00 0.16 0.16 90 1012.7
20260903160523 74 215 0.0 2.0 0.00 0.16 0.16 92 1012.9
20260903160045 73 181 0.0 2.0 0.00 0.16 0.16 92 1012.9
20260903155524 73 0 0.0 1.0 0.00 0.16 0.16 92 1013.0
20260903155025 73 0 0.0 2.0 0.00 0.16 0.16 92 1013.1
20260903154545 73 224 0.0 2.0 0.00 0.16 0.16 92 1013.0
20260903154025 73 0 0.0 2.0 0.00 0.16 0.16 93 1013.1
20260903153527 72 0 0.0 2.0 0.00 0.16 0.16 93 1013.3
20260903153046 72 155 0.0 2.0 0.00 0.16 0.16 93 1013.3
20260903152523 72 0 0.0 4.0 0.00 0.16 0.16 93 1013.3
20260903152025 72 188 0.0 4.0 0.00 0.16 0.16 94 1013.3
20260903151545 72 226 2.0 4.0 0.00 0.16 0.16 95 1013.3
20260903151025 72 158 1.0 3.0 0.00 0.16 0.16 96 1013.3
20260903150525 71 0 1.0 3.0 0.00 0.16 0.16 95 1013.4
20260903150046 71 0 0.0 2.0 0.00 0.16 0.16 96 1013.6
20260903145524 71 0 0.0 5.0 0.00 0.16 0.16 96 1013.6
20260903145024 71 178 0.0 5.0 0.00 0.16 0.16 96 1013.7
20260903144543 71 295 1.0 4.0 0.00 0.16 0.16 96 1013.7